Location: Peterborough
(44.3091°N, 78.3197°W)
Time: 07:21:56
(UTC-04:00)

Vanguard 3 - Pass Details

Date: 22 March 2023
Orbit: 507 x 3246 km, 33.4° (Epoch: 04 June)

Event Time Altitude Azimuth Distance (km) Brightness Sun altitude
Rises 01:47:35 0° 182° (S) 6,638 - -44.7°
Reaches altitude 10° 01:54:51 10° 163° (SSE) 5,975 - -44.5°
Maximum altitude 02:04:14 16° 133° (SE) 5,669 - -44.1°
Exits shadow 02:04:51 16° 131° (SE) 5,674 11.2 -44.1°
Drops below altitude 10° 02:13:38 10° 104° (ESE) 6,075 11.6 -43.6°
Sets 02:20:57 0° 86° (E) 6,815 12.1 -43.2°
